AirNav   Air Wisconsin pilot careers
 
 1614 users online  

4TN5 Tommy's Field Airport
Greenville, Tennessee, USA


FAA INFORMATION EFFECTIVE 01 FEBRUARY 2018

Location

FAA Identifier: 4TN5
Lat/Long: 36-09-03.0000N / 082-37-57.0000W
36-09.050000N / 082-37.950000W
36.1508333 / -82.6325000
(estimated)
Elevation: 1561 ft. / 476 m (estimated)
Variation: 07W ()
From city: 9 miles E of GREENVILLE, TN
Time zone: UTC -5 (UTC -4 during Daylight Saving Time)
Zip code: 37641

Airport Operations

Airport use: Private use. Permission required prior to landing
Activation date: 01/2016
Control tower: no
ARTCC: ATLANTA CENTER
FSS: NASHVILLE FLIGHT SERVICE STATION
Attendance: 
Segmented circle: no

Airport Communications

WX AWOS-3 at GCY (9 nm W): 128.425 (423-639-5081)

Nearby radio navigation aids

VOR radial/distance  VOR name  Freq  Var
SOTr047/29.7SNOWBIRD VORTAC108.8004W
HMVr239/29.8HOLSTON MOUNTAIN VORTAC114.6004W

 
NDB name  Hdg/Dist  Freq  Var  ID
DULANEY093/12.526307WDYQ -.. -.-- --.-
ROGERSVILLE153/22.032907WRVN .-. ...- -.
HEMLOCK272/36.532002WBAR -... .- .-.

Airport Services

Runway Information

Runway 9/27

Dimensions: 500 x 70 ft. / 152 x 21 m
Surface: turf
RUNWAY 9  RUNWAY 27
Traffic pattern: leftleft

Airport Ownership and Management from official FAA records

Ownership: Privately-owned
Owner: TOMMY HENSLEY
156 ANDREW JENNINGS RD
CHUCKY, TN 37641
Phone 423 278 6068

Airport Operational Statistics

Aircraft based on the field: 1
Single engine airplanes: 1
    

Instrument Procedures

There are no published instrument procedures at 4TN5.

Some nearby airports with instrument procedures:

KGCY - Greeneville-Greene County Municipal Airport (9 nm W)
KRVN - Hawkins County Airport (22 nm NW)
KTRI - Tri-Cities Airport (22 nm NE)
0A9 - Elizabethton Municipal Airport (26 nm NE)
KMOR - Moore-Murrell Airport (36 nm W)
 
Loc | Ops | Rwys | IFR | FBO | Links
Com | Nav | Svcs | Stats | Notes

AirNav Hotels Sweepstakes
 
Aerial photo
No photo
 
Airport distance calculator
Flying to Tommy's Field Airport? Find the distance to fly.

From to 4TN5

Sunrise and sunset
Times for 20-Feb-2018
 Local
(UTC-5)
 Zulu
(UTC)
Morning civil twilight06:4711:47
Sunrise07:1312:13
Sunset18:1523:15
Evening civil twilight18:4123:41

Current date and time
Zulu (UTC)  20-Feb-2018 15:47:55
Local (UTC-5)  20-Feb-2018 10:47:55
 
METAR
KTRI 
23nm NE 
201453Z 17003KT 10SM SCT250 20/13 A3037 RMK AO2 SLP265 T02000133 51010
K0A9 
26nm NE 
201535Z AUTO 19006KT 9SM CLR 22/12 A3038 RMK AO2
7A8 
33nm E 
SuperAWOS
201455Z AUTO 22004KT 10SM A3048
KMOR 
36nm W 
201535Z AUTO 26005KT 10SM CLR 20/13 A3035 RMK A01
K0VG 
41nm NW 
201530Z AUTO 00000KT 10SM CLR 18/12 A3038 RMK AO2
KVJI 
43nm NE 
201535Z AUTO 20003KT 10SM CLR 21/12 A3039 RMK AO2 T02100121
KAVL 
43nm S 
201526Z 19009KT 10SM SCT011 BKN017 BKN024 17/14 A3044 RMK AO2 RAB1455E05 P0000 T01670139
TAF
KTRI 
23nm NE 
201125Z 2012/2112 VRB03KT P6SM SCT250 FM201800 20009KT P6SM SCT250 FM210000 VRB02KT P6SM SCT060 BKN250 FM210700 VRB02KT P6SM BKN060
NOTAMs
Click for the latest NOTAMs
NOTAMs are issued by the DoD/FAA and will open in a separate window not controlled by AirNav.

 

 
 

Would you like to see your business listed on this page?

 If your business provides an interesting product or service to pilots, flight crews, aircraft, or users of the Tommy's Field Airport, you should consider listing it here.  To start the listing process, click on the button below
 
Add a business
 

Other Pages about Tommy's Field Airport

Update a link
 
Copyright © AirNav, LLC. All rights reserved. Privacy Policy  Contact